Change the Weather History Date:

Thursday, December 6, 2012

  Actual Average Record
Temperature  
Mean Temperature 34 °F -  
Max Temperature 37 °F 27 °F 41 °F (1966)
Min Temperature 30 °F 17 °F -3 °F (1954)
Degree Days  
Heating Degree Days 32    
Moisture  
Dew Point 30 °F    
Average Humidity 85    
Maximum Humidity 100    
Minimum Humidity 66    
Precipitation  
Precipitation 0.01 in - - ()
Sea Level Pressure  
Sea Level Pressure 29.77 in    
Wind  
Wind Speed 16 mph (SW)    
Max Wind Speed 26 mph    
Max Gust Speed 34 mph    
Visibility 8 miles    
Events Rain , Snow    
Averages and records for this station are not official NWS values.
T = Trace of Precipitation, MM = Missing Value Source: NWS Daily Summary

Daily Weather History Graph

Daily Weather History Graph

Search for Another Location

Airport or City:

Trip Planner

Search our weather history database for the weather conditions in past years. The results will help you decide how hot, cold, wet, or windy it might be!

Date:

Astronomy

Dec. 06, 2012 Rise Set
Actual Time 8:25 AM EST 5:04 PM EST
Civil Twilight 7:50 AM EST 5:39 PM EST
Nautical Twilight 7:12 AM EST 6:18 PM EST
Astronomical Twilight 6:35 AM EST 6:55 PM EST
Moon 12:14 AM EST (12/6) 12:55 PM EST (12/6)
Length of Visible Light 9h 48m
Length of Day
8h 38m
Waning Gibbous, 49% of the Moon is Illuminated
Dec 6
Waning Gibbous
Dec 13
New
Dec 20
First Quarter
Dec 28
Full
Jan 4
Last Quarter

Hourly Weather History & Observations

Time (EST) Temp. Windchill Dew Point Humidity Pressure Visibility Wind Dir Wind Speed Gust Speed Precip Events Conditions
12:53 AM 30.0 °F 17.9 °F 19.9 °F 66% 30.01 in 10.0 mi South 18.4 mph 28.8 mph 0.00 in   Overcast
1:53 AM 30.9 °F 19.4 °F 21.9 °F 69% 29.99 in 10.0 mi South 17.3 mph 27.6 mph N/A   Overcast
2:53 AM 32.0 °F 20.5 °F 21.9 °F 66% 29.96 in 10.0 mi South 18.4 mph 29.9 mph N/A   Overcast
3:53 AM 33.1 °F 23.4 °F 24.1 °F 70% 29.92 in 10.0 mi South 13.8 mph 23.0 mph N/A   Overcast
4:53 AM 34.0 °F 24.2 °F 25.0 °F 70% 29.88 in 10.0 mi South 15.0 mph 23.0 mph N/A   Overcast
5:53 AM 34.0 °F 28.0 °F 25.0 °F 70% 29.86 in 10.0 mi SW 6.9 mph 18.4 mph N/A   Overcast
6:53 AM 35.1 °F 25.2 °F 25.0 °F 67% 29.83 in 10.0 mi SSW 16.1 mph 24.2 mph N/A   Overcast
7:53 AM 35.1 °F 24.1 °F 28.0 °F 76% 29.81 in 7.0 mi SSW 19.6 mph 29.9 mph 0.00 in Snow Light Snow
8:30 AM 33.8 °F 24.3 °F 28.4 °F 81% 29.75 in 1.8 mi SSW 13.8 mph 25.3 mph 0.00 in Snow Light Snow
8:53 AM 33.1 °F 22.6 °F 30.9 °F 92% 29.78 in 1.5 mi South 16.1 mph - 0.00 in Snow Light Snow
8:57 AM 33.8 °F 23.9 °F 30.2 °F 87% 29.74 in 2.5 mi South 15.0 mph - 0.00 in Snow Light Snow
9:04 AM 32.0 °F 22.1 °F 30.2 °F 93% 29.74 in 5.0 mi South 13.8 mph 21.9 mph 0.00 in Snow Light Snow
9:10 AM 32.0 °F 22.5 °F 30.2 °F 93% 29.75 in 5.0 mi South 12.7 mph 21.9 mph 0.00 in   Overcast
9:14 AM 32.0 °F 22.5 °F 30.2 °F 93% 29.75 in 2.5 mi South 12.7 mph 20.7 mph 0.00 in Snow Light Snow
9:19 AM 32.0 °F 23.6 °F 30.2 °F 93% 29.74 in 1.5 mi South 10.4 mph - 0.00 in Snow Light Snow
9:30 AM 32.0 °F 22.5 °F 30.2 °F 93% 29.74 in 1.2 mi South 12.7 mph - 0.01 in Snow Light Snow
9:44 AM 32.0 °F 21.6 °F 32.0 °F 100% 29.73 in 3.0 mi South 15.0 mph - 0.01 in Snow Light Snow
9:53 AM 32.0 °F 22.1 °F 32.0 °F 100% 29.77 in 5.0 mi South 13.8 mph - 0.01 in   Overcast
10:18 AM 33.8 °F 24.3 °F 32.0 °F 93% 29.72 in 6.0 mi South 13.8 mph - N/A   Overcast
10:35 AM 33.8 °F 24.8 °F 32.0 °F 93% 29.73 in 8.0 mi SSW 12.7 mph - N/A   Overcast
10:49 AM 33.8 °F 23.9 °F 32.0 °F 93% 29.73 in 8.0 mi South 15.0 mph - N/A   Overcast
10:53 AM 34.0 °F 24.2 °F 32.0 °F 92% 29.76 in 8.0 mi South 15.0 mph - N/A   Overcast
11:02 AM 33.8 °F 23.5 °F 32.0 °F 93% 29.72 in 8.0 mi South 16.1 mph 21.9 mph N/A   Overcast
11:53 AM 35.1 °F 25.5 °F 33.1 °F 92% 29.74 in 9.0 mi SSW 15.0 mph 21.9 mph N/A   Overcast
12:53 PM 36.0 °F 27.5 °F 33.1 °F 89% 29.72 in 9.0 mi SSW 12.7 mph - N/A   Overcast
1:22 PM 35.6 °F 27.5 °F 33.8 °F 93% 29.67 in 9.0 mi SSW 11.5 mph - N/A   Overcast
1:34 PM 35.6 °F 26.6 °F 33.8 °F 93% 29.66 in 9.0 mi SSW 13.8 mph 19.6 mph N/A   Overcast
1:43 PM 37.4 °F 29.8 °F 33.8 °F 87% 29.66 in 7.0 mi SSW 11.5 mph - 0.00 in Rain Light Rain
1:53 PM 37.0 °F 29.8 °F 34.0 °F 89% 29.70 in 7.0 mi SW 10.4 mph 21.9 mph 0.00 in Rain Light Rain
2:53 PM 37.0 °F 31.0 °F 34.0 °F 89% 29.69 in 9.0 mi SW 8.1 mph - 0.00 in   Overcast
3:53 PM 37.0 °F 31.6 °F 34.0 °F 89% 29.69 in 9.0 mi SW 6.9 mph - N/A   Overcast
4:53 PM 37.0 °F 26.7 °F 32.0 °F 82% 29.71 in 10.0 mi West 19.6 mph 29.9 mph N/A   Overcast
5:53 PM 37.0 °F 26.7 °F 30.9 °F 79% 29.73 in 10.0 mi West 19.6 mph 25.3 mph N/A   Overcast
6:53 PM 37.0 °F 27.4 °F 32.0 °F 82% 29.74 in 10.0 mi West 17.3 mph 24.2 mph N/A   Overcast
7:21 PM 35.6 °F 24.5 °F 32.0 °F 87% 29.72 in 10.0 mi West 20.7 mph 27.6 mph N/A   Overcast
7:42 PM 35.6 °F 25.5 °F 32.0 °F 87% 29.72 in 10.0 mi WNW 17.3 mph 25.3 mph N/A   Overcast
7:53 PM 35.6 °F 24.5 °F 30.2 °F 81% 29.73 in 10.0 mi West 20.7 mph 26.5 mph N/A   Overcast
8:17 PM 35.6 °F 24.8 °F 30.2 °F 81% 29.73 in 10.0 mi West 19.6 mph 27.6 mph N/A   Overcast
8:37 PM 35.6 °F 25.5 °F 30.2 °F 81% 29.74 in 10.0 mi WNW 17.3 mph 28.8 mph N/A   Overcast
8:53 PM 35.1 °F 24.5 °F 30.0 °F 82% 29.78 in 10.0 mi WNW 18.4 mph 28.8 mph N/A   Overcast
9:53 PM 33.1 °F 21.5 °F 28.0 °F 82% 29.80 in 10.0 mi West 19.6 mph 34.5 mph N/A   Overcast
10:53 PM 33.1 °F 19.8 °F 27.0 °F 78% 29.82 in 10.0 mi WNW 26.5 mph 31.1 mph N/A   Overcast
11:53 PM 32.0 °F 19.2 °F 25.0 °F 75% 29.83 in 10.0 mi West 23.0 mph - N/A   Overcast